Starlink 5738

operational
NORAD ID: 55573 Int'l Des: 2023-020 Owner: SPXS Country: US Constellation: starlink
LEOCIRCULAR

Starlink 5738について

説明を読み込み中...

リアルタイム位置

3D地球を読み込み中...

次回通過

高度履歴

Altitude vs Time

uPlot chart will show altitude changes over time

軌道要素

1 55573U 23020E 25353.56776026 .00000362 00000-0 41902-4 0 9990
2 55573 43.0041 80.2790 0001466 275.2237 84.8438 15.02532128156860
Epoch: Dec 19, 2025 • Age: 11 hours

現在のステータス

高度 562.2 km
速度 7.59 km/s
衛星直下点 38.73°N, 31.29°E
打ち上げ日 Feb 12, 2023
運用期間 2.8 years
タイプ internet

技術仕様

分類 Payload
質量 305.00 kg
乾燥質量 290.00 kg
総質量 305.00 kg
長さ 0.20 m
直径 2.80 m
スパン 9.00 m
形状 Box + pan
製造者 SPXS
バスタイプ Starlink
フェーズステータス In Orbit
所有者/国 SPXS/US

大規模コンステレーション

Loading constellations...